User: anonymous   Login
Location: ???????
(55.8930°N, 38.0586°E)
Time: 08:07:28
(UTC+00:00)
Language:

Envisat - Orbit

View from above orbital plane
View from above orbital plane
View from above satellite
View from above satellite

Ground track
Ground track

The orbit data is extracted from the following two-line orbital elements,

1 27386U 02009A   24204.23091897  .00000375  00000-0  13618-3 0  9995
2 27386  98.2844 164.1058 0001384  84.4799  45.1441 14.38611698173619
Epoch (UTC): 22 July 2024 05:32:31
Eccentricity: 0.0001384
inclination: 98.2844°
perigee height: 762 km
apogee height: 764 km
right ascension of ascending node: 164.1058°
argument of perigee: 84.4799°
revolutions per day: 14.38611698
mean anomaly at epoch: 45.1441°
orbit number at epoch: 17361

The dashed part of the orbit path shows where the satellite is in the earth's shadow,  

DLR